Breckenridge, TX

3:29 AM CDT on April 23, 2018 (GMT -0500)
Stephens County

Weather History for KBKD - February, 2014

Change the Weather History Date:

Friday, February 28, 2014

  Actual Average (KMWL) Record (KMWL)
Temperature  
Mean Temperature 66 °F -  
Max Temperature 83 °F 59 °F 84 °F (2006)
Min Temperature 48 °F 37 °F 23 °F (2015)
Growing Degree Days 16 (Base 50)    
Moisture  
Dew Point 28 °F    
Average Humidity 33    
Maximum Humidity 69    
Minimum Humidity 10    
Precipitation  
Precipitation 0.00 in - - ()
Sea Level Pressure  
Sea Level Pressure 29.72 in    
Wind  
Wind Speed 13 mph (SW)    
Max Wind Speed 26 mph    
Max Gust Speed 37 mph    
Visibility 9 miles    
Events      
Averages and records for this station are not official NWS values.
T = Trace of Precipitation, MM = Missing Value Source: NWS Daily Summary

Daily Weather History Graph

Daily Weather History Graph

Search for Another Location

Airport or City:

Astronomy

Feb. 28, 2014 Rise Set
Actual Time 7:04 AM CST 6:32 PM CST
Civil Twilight 6:39 AM CST 6:56 PM CST
Nautical Twilight 6:11 AM CST 7:25 PM CST
Astronomical Twilight 5:42 AM CST 7:54 PM CST
Moon 6:19 AM CST (2/28) 6:09 PM CST (2/28)
Length of Visible Light 12h 17m
Length of Day
11h 27m
Waning Crescent, 1% of the Moon is Illuminated
Feb 28
Waning Crescent
Mar 1
New
Mar 8
First Quarter
Mar 16
Full
Mar 23
Last Quarter

Hourly Weather History & Observations

Time (CST) Temp. Dew Point Humidity Pressure Visibility Wind Dir Wind Speed Gust Speed Precip Events Conditions
12:10 AM 48.2 °F 33.1 °F 56% 29.75 in 10.0 mi South 10.4 mph 16.1 mph N/A   Clear
12:30 AM 48.6 °F 34.7 °F 59% 29.74 in 10.0 mi South 12.7 mph 19.6 mph N/A   Clear
12:50 AM 49.1 °F 36.0 °F 61% 29.73 in 10.0 mi South 12.7 mph 19.6 mph N/A   Clear
1:10 AM 49.5 °F 37.2 °F 63% 29.73 in 10.0 mi South 15.0 mph 19.6 mph N/A   Clear
1:30 AM 49.1 °F 37.4 °F 64% 29.72 in 10.0 mi South 10.4 mph 17.3 mph N/A   Clear
1:55 AM 49.1 °F 37.6 °F 64% 29.70 in 10.0 mi South 11.5 mph 19.6 mph N/A   Clear
2:10 AM 49.1 °F 37.4 °F 64% 29.69 in 10.0 mi South 10.4 mph 16.1 mph N/A   Clear
2:30 AM 48.6 °F 37.4 °F 65% 29.69 in 10.0 mi South 13.8 mph 18.4 mph N/A   Clear
2:50 AM 48.4 °F 37.4 °F 66% 29.67 in 10.0 mi South 12.7 mph 18.4 mph N/A   Clear
3:10 AM 48.0 °F 37.0 °F 66% 29.67 in 10.0 mi South 12.7 mph 18.4 mph N/A   Clear
3:30 AM 48.2 °F 37.0 °F 65% 29.66 in 10.0 mi South 12.7 mph - N/A   Clear
3:50 AM 48.2 °F 37.2 °F 66% 29.65 in 10.0 mi SSW 11.5 mph 18.4 mph N/A   Clear
4:10 AM 48.2 °F 37.2 °F 66% 29.65 in 10.0 mi SSW 9.2 mph 16.1 mph N/A   Clear
4:30 AM 49.5 °F 37.6 °F 64% 29.69 in 10.0 mi WSW 11.5 mph 19.6 mph N/A   Clear
4:50 AM 48.4 °F 37.4 °F 66% 29.69 in 10.0 mi SW 10.4 mph - N/A   Clear
5:10 AM 48.2 °F 37.6 °F 67% 29.69 in 10.0 mi SW 12.7 mph 20.7 mph N/A   Clear
5:30 AM 49.1 °F 37.8 °F 65% 29.69 in 10.0 mi SW 15.0 mph 23.0 mph N/A   Clear
5:50 AM 48.6 °F 37.8 °F 66% 29.69 in 10.0 mi SSW 15.0 mph - N/A   Clear
6:10 AM 48.4 °F 37.8 °F 67% 29.69 in 10.0 mi SW 13.8 mph 20.7 mph N/A   Clear
6:30 AM 48.4 °F 38.1 °F 68% 29.69 in 10.0 mi SW 12.7 mph 20.7 mph N/A   Clear
6:50 AM 48.2 °F 38.3 °F 69% 29.69 in 10.0 mi SW 11.5 mph 17.3 mph N/A   Clear
7:10 AM 48.2 °F 38.3 °F 69% 29.69 in 10.0 mi SW 11.5 mph 18.4 mph N/A   Clear
7:30 AM 49.1 °F 38.5 °F 67% 29.70 in 10.0 mi SW 12.7 mph 18.4 mph N/A   Clear
7:50 AM 50.4 °F 38.5 °F 64% 29.70 in 10.0 mi SW 16.1 mph 23.0 mph N/A   Clear
8:10 AM 52.9 °F 38.5 °F 58% 29.70 in 10.0 mi SW 13.8 mph 21.9 mph N/A   Clear
8:30 AM 56.1 °F 37.8 °F 50% 29.71 in 10.0 mi SW 17.3 mph 26.5 mph N/A   Clear
8:50 AM 59.4 °F 36.5 °F 43% 29.71 in 10.0 mi WSW 13.8 mph 24.2 mph N/A   Clear
9:10 AM 62.8 °F 35.4 °F 36% 29.72 in 10.0 mi WSW 12.7 mph - N/A   Clear
9:30 AM 68.0 °F 32.0 °F 26% 29.72 in 10.0 mi West 19.6 mph 29.9 mph N/A   Clear
9:50 AM 70.5 °F 29.8 °F 22% 29.72 in 10.0 mi West 19.6 mph 34.5 mph N/A   Clear
10:10 AM 72.1 °F 28.8 °F 20% 29.72 in 10.0 mi West 23.0 mph 31.1 mph N/A   Clear
10:30 AM 72.9 °F 27.9 °F 19% 29.72 in 10.0 mi WNW 25.3 mph 34.5 mph N/A   Clear
10:50 AM 74.5 °F 26.8 °F 17% 29.72 in 10.0 mi WNW 26.5 mph 36.8 mph N/A   Clear
11:10 AM 75.6 °F 26.4 °F 16% 29.72 in 10.0 mi WNW 24.2 mph 33.4 mph N/A   Clear
11:30 AM 76.3 °F 26.6 °F 16% 29.72 in 10.0 mi WNW 20.7 mph 33.4 mph N/A   Clear
11:50 AM 77.4 °F 25.9 °F 15% 29.72 in 10.0 mi West 23.0 mph 29.9 mph N/A   Clear
12:10 PM 78.6 °F 25.3 °F 14% 29.71 in 10.0 mi West 23.0 mph 33.4 mph N/A   Clear
12:30 PM 79.9 °F 25.5 °F 14% 29.71 in 10.0 mi West 17.3 mph 28.8 mph N/A   Clear
12:50 PM 81.0 °F 25.7 °F 13% 29.71 in 10.0 mi WNW 19.6 mph 28.8 mph N/A   Clear
1:10 PM 81.5 °F 25.2 °F 13% 29.70 in 10.0 mi West 16.1 mph 28.8 mph N/A   Clear
1:30 PM 81.9 °F 25.2 °F 12% 29.69 in 7.0 mi WNW 18.4 mph 25.3 mph N/A   Clear
1:50 PM 82.2 °F 24.8 °F 12% 29.69 in 7.0 mi West 17.3 mph 26.5 mph N/A   Clear
2:10 PM 82.8 °F 24.6 °F 12% 29.69 in 7.0 mi WNW 16.1 mph 26.5 mph N/A   Clear
2:35 PM 83.1 °F 23.9 °F 11% 29.69 in 7.0 mi WNW 19.6 mph 29.9 mph N/A   Clear
2:50 PM 83.8 °F 23.7 °F 11% 29.68 in 7.0 mi WNW 20.7 mph 26.5 mph N/A   Clear
3:10 PM 83.5 °F 23.5 °F 11% 29.69 in 7.0 mi WNW 21.9 mph 28.8 mph N/A   Scattered Clouds
3:30 PM 83.3 °F 22.3 °F 11% 29.69 in 7.0 mi West 13.8 mph 29.9 mph N/A   Scattered Clouds
3:50 PM 82.8 °F 21.7 °F 11% 29.69 in 7.0 mi West 18.4 mph 27.6 mph N/A   Scattered Clouds
4:10 PM 83.3 °F 21.0 °F 10% 29.68 in 7.0 mi WNW 17.3 mph 24.2 mph N/A   Scattered Clouds
4:30 PM 83.1 °F 21.6 °F 10% 29.69 in 7.0 mi WNW 15.0 mph 24.2 mph N/A   Overcast
4:50 PM 82.6 °F 20.7 °F 10% 29.69 in 7.0 mi WNW 17.3 mph - N/A   Overcast
5:10 PM 81.9 °F 20.5 °F 10% 29.69 in 7.0 mi North - - N/A   Overcast
5:30 PM 80.8 °F 20.7 °F 11% 29.69 in 7.0 mi West 11.5 mph 19.6 mph N/A   Overcast
5:50 PM 78.6 °F 20.8 °F 12% 29.70 in 7.0 mi West 6.9 mph - N/A   Overcast
6:10 PM 75.6 °F 21.2 °F 13% 29.71 in 5.0 mi West 5.8 mph - N/A   Haze
6:30 PM 74.1 °F 20.1 °F 13% 29.73 in 5.0 mi West 3.5 mph - N/A   Haze
6:50 PM 73.8 °F 19.6 °F 13% 29.73 in 7.0 mi Calm Calm - N/A   Overcast
7:10 PM 74.3 °F 18.9 °F 12% 29.73 in 7.0 mi SSW 3.5 mph - N/A   Overcast
7:30 PM 74.5 °F 18.5 °F 12% 29.74 in 7.0 mi SW 4.6 mph - N/A   Overcast
7:50 PM 73.8 °F 18.3 °F 12% 29.75 in 7.0 mi South 5.8 mph - N/A   Overcast
8:10 PM 70.7 °F 18.5 °F 14% 29.76 in 7.0 mi SSW 6.9 mph - N/A   Overcast
8:30 PM 68.9 °F 18.9 °F 15% 29.76 in 7.0 mi South 9.2 mph - N/A   Overcast
8:55 PM 67.5 °F 19.0 °F 16% 29.77 in 7.0 mi South 10.4 mph - N/A   Overcast
9:10 PM 68.2 °F 18.5 °F 15% 29.78 in 5.0 mi SSW 10.4 mph - N/A   Haze
9:30 PM 64.9 °F 19.6 °F 18% 29.78 in 7.0 mi South 9.2 mph - N/A   Scattered Clouds
9:50 PM 63.9 °F 20.3 °F 19% 29.79 in 7.0 mi South 9.2 mph - N/A   Clear
10:10 PM 63.5 °F 20.1 °F 19% 29.79 in 7.0 mi South 10.4 mph - N/A   Clear
10:30 PM 63.3 °F 20.1 °F 19% 29.80 in 7.0 mi South 9.2 mph - N/A   Clear
10:50 PM 63.5 °F 20.1 °F 19% 29.81 in 7.0 mi SSW 6.9 mph - N/A   Clear
11:10 PM 60.6 °F 20.8 °F 22% 29.81 in 7.0 mi SSW 6.9 mph - N/A   Clear
11:30 PM 58.8 °F 21.2 °F 23% 29.81 in 7.0 mi SSW 6.9 mph - N/A   Clear
11:50 PM 58.8 °F 21.9 °F 24% 29.81 in 10.0 mi SSW 4.6 mph - N/A   Clear